[[{"header":{"parameterUnit":"m.s-1","parameterCategory":2,"la1":30.2991,"la2":30.254,"lo1":-89.0895,"lo2":-89.0444,"dy":0.0017,"dx":0.0017,"nx":28,"ny":28,"refTime":"2023-10-17T03:00:00:Z","depth":"0","parameterNumber":2,"parameterNumberName":"U-component_of_CURRENTS"},"data":[0,0,0,0,0,0,0,0,0,0,0,0,0,0,0,0,0,0,0,0,0,0,0,0,0,0,0,0,0,0,0,0,0,0,0,0,0,0,0,0,0,0,0,0,0,0,0,0,0,0,0,0,0,0,0,0,0,0,-0.3593,-0.3594,0,-0.3663,-0.3663,-0.3663,-0.3607,-0.3606,-0.3604,-0.3602,-0.344,-0.3437,-0.3434,0,0,0,0,0,0,0,0,0,0,0,0,0,-0.3387,-0.339,-0.3593,-0.3594,-0.3596,-0.3663,-0.3663,-0.3663,-0.3608,-0.3606,-0.3603,-0.3602,-0.344,-0.3437,-0.3434,0,0,0,0,0,0,0,0,0,0,0,0,0,-0.3462,-0.3391,-0.3592,-0.3581,-0.3582,-0.3663,-0.3663,-0.3663,-0.3608,-0.3606,-0.3603,-0.3601,-0.3442,-0.3438,-0.3433,-0.346,0,0,-0.3421,-0.3419,0,0,0,0,0,0,0,0,-0.3457,-0.3468,-0.3582,-0.3582,-0.3583,-0.363,-0.3531,-0.3586,-0.3609,-0.359,-0.3602,-0.3599,-0.3488,-0.348,-0.3492,-0.3452,-0.3445,-0.3421,-0.3418,-0.3416,-0.3415,0,0,0,0,0,0,0,-0.3452,-0.3465,-0.3613,-0.3584,-0.3585,-0.3565,-0.3572,-0.3542,-0.3543,-0.3592,-0.359,-0.361,-0.3485,-0.3497,-0.3487,-0.3443,-0.3421,-0.3417,-0.3415,-0.3413,-0.3433,-0.3436,0,0,0,0,0,0,-0.3463,-0.3461,-0.3611,-0.3616,-0.3521,-0.3572,-0.3579,-0.3612,-0.3548,-0.354,-0.3612,-0.3607,-0.3505,-0.3492,-0.3481,-0.3472,-0.3416,-0.3413,-0.341,-0.343,-0.3434,-0.3437,0,0,0,0,0,0,-0.3459,-0.3477,-0.3608,-0.3544,-0.356,-0.3579,-0.3615,-0.3615,-0.3617,-0.3568,-0.3553,-0.3615,-0.3502,-0.3487,-0.3482,-0.3465,-0.3411,-0.3407,-0.3427,-0.3431,-0.3435,-0.3475,0,0,0,0,0,0,-0.3453,-0.3475,-0.3502,-0.3546,-0.3565,-0.3662,-0.3618,-0.3618,-0.3638,-0.3631,-0.3565,-0.3548,-0.3499,-0.349,-0.3478,-0.3459,-0.3404,-0.3423,-0.3429,-0.3434,-0.347,-0.348,-0.3489,0,0,0,0,0,-0.3445,-0.3492,-0.3503,-0.3522,-0.3602,-0.3664,-0.3672,-0.367,-0.364,-0.3657,-0.3629,-0.355,-0.3516,-0.349,-0.3476,-0.3454,-0.342,-0.3427,-0.3433,-0.3465,-0.3478,-0.3489,0,0,0,0,0,0,-0.34,-0.3494,-0.3505,-0.3574,-0.362,-0.3657,-0.3678,-0.3678,-0.3674,-0.3656,-0.3592,-0.3576,-0.3578,-0.3532,-0.3504,-0.3488,-0.3453,-0.3458,-0.3483,-0.3494,-0.3503,-0.346,-0.34,0,0,0,0,0,-0.3413,-0.3484,-0.3547,-0.3603,-0.3625,-0.3652,-0.3675,-0.3681,-0.3689,-0.3684,-0.365,-0.3616,-0.3602,-0.3559,-0.3559,-0.3532,-0.3452,-0.3516,-0.3525,-0.3533,-0.3497,-0.3394,-0.3387,-0.3459,-0.3459,-0.3459,0,0,-0.341,-0.3475,-0.3511,-0.3601,-0.3628,-0.3662,-0.3656,-0.3702,-0.3709,-0.3666,-0.3661,-0.3666,-0.362,-0.3614,-0.3603,-0.3555,-0.3483,-0.3542,-0.3547,-0.3506,-0.3399,-0.3391,-0.3384,-0.3464,-0.3463,-0.3462,0,0,-0.3435,-0.3495,-0.355,-0.3593,-0.366,-0.3682,-0.3696,-0.3743,-0.3736,-0.3764,-0.3738,-0.373,-0.371,-0.3662,-0.3633,-0.3693,-0.357,-0.3705,-0.366,-0.3562,-0.3552,-0.3543,-0.3457,-0.344,-0.3665,-0.3665,-0.3666,0,-0.3427,-0.3493,-0.3571,-0.3618,-0.3637,-0.3686,-0.3705,-0.3728,-0.3768,-0.3744,-0.3766,-0.3738,-0.3719,-0.3649,-0.3689,-0.37,-0.3634,-0.3608,-0.3564,-0.3554,-0.3543,-0.3457,-0.3437,-0.3668,-0.3668,-0.3668,-0.3667,0,-0.347,-0.3518,-0.3548,-0.3623,-0.3663,-0.3694,-0.3735,-0.376,-0.3768,-0.3766,-0.3748,-0.3752,-0.3704,-0.3722,-0.372,-0.3642,-0.3621,-0.3616,-0.3513,-0.3536,-0.3448,-0.3426,-0.3672,-0.3671,-0.367,-0.367,0,0,-0.3444,-0.3556,-0.3556,-0.3572,-0.3655,-0.3683,-0.3708,-0.3713,-0.3685,-0.3726,-0.3664,-0.3687,-0.3675,-0.3647,-0.364,-0.3562,-0.3473,-0.3556,-0.3549,-0.3432,-0.3252,-0.3182,-0.3151,-0.345,-0.3446,-0.3443,-0.3227,0,-0.3432,-0.349,-0.3555,-0.3582,-0.3599,-0.365,-0.3661,-0.3678,-0.3683,-0.3653,-0.3623,-0.3596,-0.3644,-0.3623,-0.3558,-0.3506,-0.3414,-0.3531,-0.3281,-0.3273,-0.3173,-0.3122,-0.3016,-0.2809,-0.3205,-0.3201,-0.3198,0,-0.3421,-0.3463,-0.3475,-0.3531,-0.3539,-0.3563,-0.3552,-0.3573,-0.355,-0.3552,-0.3508,-0.3504,-0.3422,-0.3472,-0.3309,-0.338,-0.3316,-0.3268,-0.3258,-0.3146,-0.3159,-0.285,-0.2753,-0.2741,-0.3164,-0.3166,-0.3169,0,-0.3315,-0.3394,-0.3387,-0.3407,-0.3484,-0.3479,-0.3508,-0.3513,-0.3486,-0.3464,-0.3424,-0.3363,-0.33,-0.3218,-0.3168,-0.3217,-0.2979,-0.3021,-0.2881,-0.2877,-0.2709,-0.2695,-0.2523,-0.2868,-0.2869,-0.2869,-0.287,0,-0.3254,-0.3251,-0.3333,-0.3327,-0.3305,-0.3394,-0.3346,-0.3381,-0.3366,-0.3293,-0.3341,-0.3256,-0.3232,-0.3121,-0.309,-0.2903,-0.2898,-0.2833,-0.2793,-0.273,-0.2721,-0.2642,-0.2706,-0.2861,-0.2863,-0.2865,-0.2866,0,-0.3123,-0.3184,-0.3183,-0.3244,-0.3253,-0.323,-0.325,-0.3213,-0.3236,-0.3138,-0.312,-0.311,-0.2984,-0.2945,-0.2801,-0.276,-0.2574,-0.2568,-0.2511,-0.2468,-0.2334,-0.2407,-0.2177,-0.2115,-0.2345,-0.2341,-0.2339,0,-0.3053,-0.3034,-0.3081,-0.3062,-0.3081,-0.3069,-0.3051,-0.3118,-0.3072,-0.3027,-0.2949,-0.2855,-0.2757,-0.2546,-0.2475,-0.2343,-0.2397,-0.2169,-0.2241,-0.2261,-0.2313,-0.2382,-0.2354,-0.2048,-0.2043,-0.2039,-0.2036,0,-0.2891,-0.2908,-0.2911,-0.2885,-0.2869,-0.284,-0.2823,-0.2781,-0.2822,-0.2762,-0.2663,-0.2595,-0.2437,-0.2274,-0.2148,-0.207,-0.213,-0.2079,-0.2083,-0.2032,-0.2104,-0.2048,-0.2291,-0.1999,-0.2003,-0.2005,-0.2007,-0.2009,-0.2745,-0.2717,-0.272,-0.266,-0.2662,-0.2596,-0.2503,-0.2517,-0.2441,-0.2326,-0.2372,-0.2236,-0.2139,-0.1952,-0.1872,-0.1729,-0.1839,-0.1683,-0.1757,-0.1816,-0.1783,-0.1958,-0.1647,-0.1648,-0.1649,-0.1651,-0.1652,0,-0.2495,-0.2504,-0.2482,-0.2431,-0.2339,-0.2399,-0.2321,-0.219,-0.2066,-0.2053,-0.1962,-0.1864,-0.172,-0.1666,-0.1551,-0.1456,-0.1446,-0.142,-0.1495,-0.1471,-0.1569,-0.1585,-0.1264,-0.1264,-0.1264,-0.1264,-0.1264,-0.1264,-0.2358,-0.2257,-0.2252,-0.2072,-0.2049,-0.1859,-0.1769,-0.1652,-0.1584,-0.1446,-0.1418,-0.1396,-0.1449,-0.158,-0.1464,-0.1373,-0.1367,-0.1304,-0.1356,-0.1465,-0.1497,-0.1527,-0.1553,-0.1231,-0.1231,-0.1181,-0.1181,-0.1181]},{"header":{"parameterUnit":"m.s-1","parameterCategory":2,"la1":30.2991,"la2":30.254,"lo1":-89.0895,"lo2":-89.0444,"dy":0.0017,"dx":0.0017,"nx":28,"ny":28,"refTime":"2023-10-17T03:00:00:Z","depth":"0","parameterNumber":3,"parameterNumberName":"V-component_of_CURRENTS"},"data":[0,0,0,0,0,0,0,0,0,0,0,0,0,0,0,0,0,0,0,0,0,0,0,0,0,0,0,0,0,0,0,0,0,0,0,0,0,0,0,0,0,0,0,0,0,0,0,0,0,0,0,0,0,0,0,0,0,0,0.0736,0.0739,0,0.1023,0.1026,0.103,0.123,0.1231,0.1232,0.1234,0.1471,0.1476,0.1481,0,0,0,0,0,0,0,0,0,0,0,0,0,0.0594,0.0594,0.0736,0.0739,0.0742,0.1022,0.1026,0.103,0.1229,0.1231,0.1233,0.1234,0.1469,0.1475,0.1481,0,0,0,0,0,0,0,0,0,0,0,0,0,0.0747,0.0594,0.0735,0.0874,0.0889,0.1021,0.1027,0.1032,0.1229,0.1231,0.1233,0.1235,0.1467,0.1475,0.1482,0.1488,0,0,0.1505,0.1509,0,0,0,0,0,0,0,0,0.0737,0.0752,0.085,0.0865,0.0882,0.1091,0.1064,0.1181,0.1229,0.1102,0.1234,0.1236,0.1336,0.1355,0.1408,0.15,0.151,0.1506,0.1511,0.1514,0.1516,0,0,0,0,0,0,0,0.0726,0.0742,0.0852,0.0853,0.0873,0.1002,0.1024,0.1088,0.1205,0.1113,0.1128,0.1156,0.1345,0.14,0.1415,0.1513,0.1506,0.1512,0.1517,0.152,0.1679,0.1679,0,0,0,0,0,0,0.0672,0.073,0.0842,0.086,0.0811,0.1002,0.1027,0.1023,0.1206,0.1236,0.1154,0.1164,0.1386,0.1406,0.1424,0.1442,0.1514,0.1521,0.1525,0.168,0.1679,0.1679,0,0,0,0,0,0,0.0667,0.0678,0.0831,0.0803,0.0831,0.1,0.0996,0.1028,0.1082,0.1237,0.1267,0.1175,0.1389,0.1413,0.1487,0.1453,0.1524,0.1531,0.168,0.1679,0.1679,0.1478,0,0,0,0,0,0,0.0661,0.0673,0.066,0.0797,0.083,0.0862,0.0995,0.1032,0.1095,0.1111,0.1264,0.1289,0.1392,0.1474,0.1494,0.1464,0.1537,0.168,0.168,0.1679,0.1485,0.1471,0.1459,0,0,0,0,0,0.0655,0.061,0.0656,0.0672,0.0802,0.0859,0.0886,0.1019,0.1093,0.1082,0.1218,0.1284,0.1485,0.148,0.1503,0.1475,0.1681,0.168,0.1679,0.1491,0.1474,0.1459,0,0,0,0,0,0,0.0527,0.063,0.0684,0.0669,0.0739,0.0891,0.0895,0.0995,0.1098,0.1113,0.1278,0.131,0.137,0.1448,0.1438,0.1524,0.1594,0.1597,0.1443,0.1427,0.1414,0.1354,0.1543,0,0,0,0,0,0.0491,0.0496,0.06,0.0588,0.06,0.0745,0.0791,0.0872,0.0982,0.1032,0.1149,0.1275,0.1384,0.1423,0.1523,0.1549,0.1586,0.1551,0.1537,0.1525,0.1494,0.1562,0.155,0.1676,0.1676,0.1676,0,0,0.0438,0.0498,0.0501,0.0564,0.0626,0.0642,0.0775,0.0803,0.0845,0.1034,0.1104,0.1228,0.1386,0.1442,0.1472,0.1497,0.1494,0.1524,0.1512,0.1488,0.156,0.1547,0.1536,0.1676,0.1676,0.1676,0,0,0.0333,0.037,0.0339,0.0382,0.0455,0.0543,0.0536,0.0659,0.0726,0.0801,0.097,0.1058,0.1211,0.1317,0.1396,0.1357,0.1432,0.1401,0.1269,0.1334,0.1323,0.1314,0.1268,0.1257,0.1381,0.1381,0.1381,0,0.0273,0.0256,0.0335,0.0317,0.0355,0.0482,0.0463,0.0538,0.0685,0.0734,0.0784,0.1039,0.1147,0.1257,0.1252,0.1319,0.1346,0.1311,0.1311,0.1304,0.1298,0.1255,0.1245,0.1371,0.1372,0.1373,0.1374,0,0.0156,0.015,0.0117,0.0158,0.0196,0.0185,0.0295,0.0338,0.0439,0.0542,0.065,0.0811,0.0963,0.101,0.112,0.1152,0.1175,0.1291,0.1335,0.1272,0.1231,0.1224,0.1357,0.1361,0.1364,0.1366,0,0,0.0023,0.0037,0.0027,0.0042,0.0115,0.0141,0.0167,0.0249,0.0302,0.04,0.0472,0.0627,0.0719,0.0813,0.0959,0.0999,0.0952,0.1105,0.1114,0.1025,0.1017,0.1076,0.1075,0.1086,0.1085,0.1085,0.0974,0,-0.0082,-0.015,-0.0097,-0.012,-0.0134,-0.0015,0.0023,0.0116,0.022,0.0307,0.0437,0.0557,0.0647,0.073,0.0773,0.096,0.0939,0.0965,0.1121,0.1122,0.1159,0.1073,0.1115,0.1028,0.0969,0.0968,0.0967,0,-0.0203,-0.0208,-0.0278,-0.0211,-0.021,-0.0195,-0.0086,-0.0035,0.0098,0.0177,0.0274,0.0413,0.0494,0.0593,0.0728,0.0752,0.083,0.0929,0.0931,0.1055,0.1173,0.1104,0.1019,0.1191,0.0958,0.0958,0.0959,0,-0.0302,-0.0323,-0.037,-0.0358,-0.0281,-0.0268,-0.0213,-0.0086,-0.0031,0.0095,0.0143,0.0278,0.0355,0.0482,0.0661,0.0704,0.08,0.0899,0.0984,0.0985,0.1083,0.1096,0.1163,0.0932,0.0933,0.0933,0.0933,0,-0.0409,-0.0433,-0.0425,-0.0436,-0.0445,-0.0359,-0.033,-0.0247,-0.0141,-0.0099,0.006,0.0116,0.0342,0.0449,0.0594,0.0748,0.0733,0.0912,0.0972,0.1008,0.1015,0.1228,0.1316,0.0929,0.093,0.0931,0.0931,0,-0.0493,-0.0511,-0.0537,-0.0502,-0.0494,-0.0494,-0.0419,-0.0386,-0.0283,-0.0228,-0.02,-0.0026,0.0121,0.032,0.053,0.0659,0.0922,0.0871,0.0839,0.09,0.1164,0.1239,0.1326,0.1432,0.0918,0.0919,0.092,0,-0.0533,-0.0569,-0.0591,-0.0612,-0.0601,-0.0588,-0.0571,-0.0471,-0.0439,-0.0316,-0.0309,-0.0156,-0.0017,0.0277,0.0554,0.0773,0.0933,0.0916,0.1022,0.1141,0.1269,0.1312,0.1399,0.1019,0.102,0.1022,0.1023,0,-0.0545,-0.0578,-0.0594,-0.0658,-0.0678,-0.0696,-0.0677,-0.0679,-0.0571,-0.0514,-0.0416,-0.0295,0.0006,0.0334,0.0642,0.0782,0.1065,0.0951,0.112,0.1369,0.1376,0.1521,0.1049,0.1034,0.1033,0.1032,0.1032,0.1031,-0.051,-0.0547,-0.0585,-0.0627,-0.0698,-0.076,-0.0738,-0.0723,-0.0676,-0.0513,-0.0481,-0.0191,0.0197,0.0678,0.0846,0.1214,0.1175,0.1329,0.1394,0.1414,0.158,0.1077,0.1141,0.114,0.114,0.1139,0.1139,0,-0.0383,-0.0446,-0.0522,-0.0576,-0.0649,-0.0698,-0.0745,-0.0679,-0.0603,-0.0451,-0.0291,0.0203,0.0609,0.1006,0.1459,0.1659,0.1721,0.174,0.1821,0.1884,0.1475,0.1552,0.1657,0.1657,0.1657,0.1657,0.1656,0.1656,-0.0304,-0.033,-0.0382,-0.0449,-0.0524,-0.0561,-0.0576,-0.0499,-0.037,-0.0062,0.0287,0.0533,0.0982,0.1617,0.2044,0.2079,0.2285,0.223,0.2346,0.2089,0.2056,0.2025,0.2121,0.2343,0.2344,0.2748,0.2752,0.2755]}],[{"header":{"parameterUnit":"m.s-1","parameterCategory":2,"la1":30.2991,"la2":30.254,"lo1":-89.0895,"lo2":-89.0444,"dy":0.0017,"dx":0.0017,"nx":28,"ny":28,"refTime":"2023-10-17T03:00:00:Z","depth":"2","parameterNumber":2,"parameterNumberName":"U-component_of_CURRENTS"},"data":[0,0,0,0,0,0,0,0,0,0,0,0,0,0,0,0,0,0,0,0,0,0,0,0,0,0,0,0,0,0,0,0,0,0,0,0,0,0,0,0,0,0,0,0,0,0,0,0,0,0,0,0,0,0,0,0,0,0,-0.2552,-0.2553,0,-0.2594,-0.2594,-0.2594,-0.2585,-0.2585,-0.2584,-0.2584,-0.2792,-0.2797,-0.2803,0,0,0,0,0,0,0,0,0,0,0,0,0,-0.2414,-0.2417,-0.2552,-0.2553,-0.2554,-0.2594,-0.2594,-0.2594,-0.2585,-0.2585,-0.2584,-0.2584,-0.279,-0.2797,-0.2804,0,0,0,0,0,0,0,0,0,0,0,0,0,-0.2463,-0.2418,-0.2552,-0.2558,-0.2559,-0.2594,-0.2594,-0.2594,-0.2585,-0.2585,-0.2584,-0.2584,-0.2787,-0.2796,-0.2805,-0.287,0,0,-0.2832,-0.2835,0,0,0,0,0,0,0,0,-0.246,-0.2467,-0.2556,-0.2557,-0.2559,-0.2588,-0.2622,-0.2696,-0.2585,-0.2571,-0.2584,-0.2583,-0.2742,-0.2755,-0.2755,-0.2879,-0.2888,-0.2832,-0.2838,-0.2841,-0.2844,0,0,0,0,0,0,0,-0.2457,-0.2465,-0.2564,-0.2557,-0.2559,-0.2541,-0.2547,-0.2634,-0.2659,-0.2572,-0.2572,-0.2584,-0.2744,-0.2746,-0.276,-0.2891,-0.2832,-0.284,-0.2845,-0.2849,-0.3188,-0.3192,0,0,0,0,0,0,-0.2465,-0.2463,-0.2563,-0.2566,-0.2512,-0.2545,-0.2551,-0.2575,-0.2654,-0.2665,-0.2585,-0.2584,-0.2731,-0.275,-0.2768,-0.2949,-0.2841,-0.285,-0.2855,-0.3185,-0.3189,-0.3193,0,0,0,0,0,0,-0.2462,-0.2474,-0.2561,-0.2517,-0.2528,-0.2549,-0.2575,-0.2577,-0.2592,-0.2663,-0.2676,-0.2601,-0.2732,-0.2756,-0.2834,-0.2953,-0.2854,-0.2862,-0.318,-0.3186,-0.3191,-0.3249,0,0,0,0,0,0,-0.2458,-0.2473,-0.2489,-0.2519,-0.2531,-0.262,-0.2576,-0.2578,-0.2602,-0.2601,-0.2682,-0.2699,-0.2733,-0.2821,-0.2843,-0.2964,-0.2868,-0.3175,-0.3183,-0.3189,-0.3242,-0.3256,-0.3268,0,0,0,0,0,-0.2453,-0.2484,-0.2489,-0.2501,-0.2554,-0.2624,-0.2629,-0.2636,-0.2604,-0.264,-0.2654,-0.2697,-0.2884,-0.2828,-0.2854,-0.2981,-0.3172,-0.3181,-0.3189,-0.3237,-0.3253,-0.3267,0,0,0,0,0,0,-0.2432,-0.2488,-0.2494,-0.254,-0.2595,-0.2625,-0.2652,-0.2647,-0.2681,-0.2678,-0.2713,-0.2733,-0.2889,-0.2902,-0.284,-0.3101,-0.3051,-0.3065,-0.3079,-0.3096,-0.3108,-0.2996,-0.2876,0,0,0,0,0,-0.2437,-0.2465,-0.2533,-0.2563,-0.2605,-0.2627,-0.2649,-0.2664,-0.2698,-0.271,-0.2767,-0.2836,-0.2944,-0.298,-0.3094,-0.3187,-0.3098,-0.3297,-0.331,-0.332,-0.3249,-0.3174,-0.317,-0.3221,-0.3221,-0.3221,0,0,-0.2436,-0.2464,-0.2482,-0.2559,-0.2596,-0.2664,-0.2639,-0.2699,-0.2733,-0.2735,-0.2811,-0.2911,-0.2989,-0.3126,-0.3195,-0.314,-0.3273,-0.3331,-0.3338,-0.326,-0.3182,-0.3176,-0.317,-0.3227,-0.3226,-0.3225,0,0,-0.2456,-0.2486,-0.2533,-0.2588,-0.2663,-0.2691,-0.2716,-0.2787,-0.2805,-0.2883,-0.2926,-0.3007,-0.3177,-0.3218,-0.3265,-0.3394,-0.3375,-0.3528,-0.3461,-0.3393,-0.3385,-0.3377,-0.3287,-0.327,-0.3491,-0.3491,-0.3491,0,-0.2451,-0.2508,-0.2559,-0.2625,-0.2658,-0.2709,-0.2772,-0.2811,-0.2889,-0.2902,-0.2925,-0.311,-0.3191,-0.3284,-0.3347,-0.3418,-0.3374,-0.3397,-0.3399,-0.3388,-0.3378,-0.3288,-0.3268,-0.3495,-0.3495,-0.3494,-0.3494,0,-0.2515,-0.2563,-0.26,-0.2688,-0.2746,-0.2806,-0.2883,-0.2939,-0.2968,-0.2997,-0.3115,-0.3182,-0.3255,-0.3366,-0.3393,-0.3434,-0.3429,-0.3452,-0.3335,-0.3375,-0.3281,-0.3259,-0.35,-0.3499,-0.3498,-0.3497,0,0,-0.2468,-0.2616,-0.2619,-0.2657,-0.2774,-0.2818,-0.2901,-0.2972,-0.2979,-0.3082,-0.3072,-0.3259,-0.3273,-0.3318,-0.3398,-0.3335,-0.3266,-0.3365,-0.336,-0.3228,-0.3109,-0.3049,-0.3018,-0.331,-0.3306,-0.3303,-0.3079,0,-0.2488,-0.2592,-0.2666,-0.2746,-0.2807,-0.2877,-0.2936,-0.3003,-0.3049,-0.3071,-0.3112,-0.3185,-0.3267,-0.3309,-0.3267,-0.3297,-0.3209,-0.3322,-0.3127,-0.3118,-0.302,-0.299,-0.2833,-0.2615,-0.3056,-0.3052,-0.305,0,-0.2517,-0.2563,-0.2654,-0.2746,-0.2781,-0.284,-0.2893,-0.2958,-0.3011,-0.3041,-0.3073,-0.3123,-0.3111,-0.3148,-0.307,-0.3158,-0.3114,-0.3088,-0.308,-0.296,-0.3015,-0.2647,-0.2557,-0.3012,-0.3015,-0.3017,-0.302,0,-0.2418,-0.2547,-0.2596,-0.2632,-0.2761,-0.2794,-0.2862,-0.2942,-0.2955,-0.3,-0.299,-0.3012,-0.2994,-0.2945,-0.2942,-0.3002,-0.2804,-0.287,-0.2744,-0.2739,-0.252,-0.2502,-0.2723,-0.2723,-0.2724,-0.2725,-0.2725,0,-0.2386,-0.2416,-0.2552,-0.2565,-0.2601,-0.2728,-0.2748,-0.2828,-0.2869,-0.2865,-0.2954,-0.2914,-0.2942,-0.2873,-0.2861,-0.2723,-0.2727,-0.267,-0.2656,-0.2548,-0.2536,-0.2815,-0.2829,-0.2716,-0.2718,-0.272,-0.2721,0,-0.2277,-0.2374,-0.2418,-0.2529,-0.2561,-0.2585,-0.2674,-0.2677,-0.2758,-0.2734,-0.2739,-0.2789,-0.2724,-0.2718,-0.262,-0.2592,-0.2487,-0.2434,-0.2303,-0.2276,-0.2478,-0.2499,-0.2221,-0.2217,-0.2213,-0.221,-0.2207,0,-0.2248,-0.2257,-0.2347,-0.2359,-0.2409,-0.2458,-0.2483,-0.2597,-0.2602,-0.2648,-0.2613,-0.2577,-0.2534,-0.2374,-0.2321,-0.2205,-0.2331,-0.1991,-0.2057,-0.2401,-0.2416,-0.2443,-0.2468,-0.1799,-0.1793,-0.1788,-0.1785,0,-0.2141,-0.2168,-0.219,-0.2207,-0.2237,-0.2259,-0.2318,-0.2306,-0.2422,-0.2412,-0.2395,-0.236,-0.2254,-0.2086,-0.1977,-0.1906,-0.2009,-0.189,-0.222,-0.1985,-0.1994,-0.2014,-0.2053,-0.1742,-0.1747,-0.175,-0.1752,-0.1754,-0.2023,-0.2013,-0.203,-0.2037,-0.2067,-0.2066,-0.2026,-0.2088,-0.2076,-0.2057,-0.2137,-0.2031,-0.2002,-0.1747,-0.1641,-0.1562,-0.1708,-0.1641,-0.1659,-0.168,-0.1706,-0.1711,-0.1409,-0.1411,-0.1413,-0.1414,-0.1416,0,-0.1848,-0.1861,-0.1861,-0.1848,-0.1806,-0.1885,-0.1896,-0.1827,-0.1773,-0.18,-0.1767,-0.1574,-0.1453,-0.1424,-0.1244,-0.1206,-0.1224,-0.115,-0.1188,-0.1229,-0.1266,-0.1276,-0.0861,-0.0859,-0.0857,-0.0856,0,0,-0.1747,-0.169,-0.17,-0.1585,-0.1579,-0.1464,-0.144,-0.1399,-0.1382,-0.1307,-0.126,-0.1351,-0.1373,-0.1121,-0.1061,-0.093,-0.1068,-0.0875,-0.1319,-0.1403,-0.1438,-0.1544,-0.1603,0,0,0,0,0]},{"header":{"parameterUnit":"m.s-1","parameterCategory":2,"la1":30.2991,"la2":30.254,"lo1":-89.0895,"lo2":-89.0444,"dy":0.0017,"dx":0.0017,"nx":28,"ny":28,"refTime":"2023-10-17T03:00:00:Z","depth":"2","parameterNumber":3,"parameterNumberName":"V-component_of_CURRENTS"},"data":[0,0,0,0,0,0,0,0,0,0,0,0,0,0,0,0,0,0,0,0,0,0,0,0,0,0,0,0,0,0,0,0,0,0,0,0,0,0,0,0,0,0,0,0,0,0,0,0,0,0,0,0,0,0,0,0,0,0,-0.0457,-0.0457,0,-0.0503,-0.0504,-0.0505,-0.0524,-0.0523,-0.0523,-0.0522,-0.0362,-0.0358,-0.0355,0,0,0,0,0,0,0,0,0,0,0,0,0,-0.0441,-0.0441,-0.0457,-0.0457,-0.0457,-0.0503,-0.0504,-0.0505,-0.0524,-0.0523,-0.0523,-0.0522,-0.0363,-0.0359,-0.0355,0,0,0,0,0,0,0,0,0,0,0,0,0,-0.0469,-0.0441,-0.0457,-0.0468,-0.0469,-0.0503,-0.0504,-0.0506,-0.0524,-0.0523,-0.0522,-0.0521,-0.0365,-0.0359,-0.0354,-0.0339,0,0,-0.0337,-0.0335,0,0,0,0,0,0,0,0,-0.0467,-0.047,-0.0466,-0.0467,-0.0468,-0.0502,-0.044,-0.0438,-0.0524,-0.0509,-0.0522,-0.0521,-0.0386,-0.0379,-0.0401,-0.0331,-0.0325,-0.0337,-0.0333,-0.0331,-0.0329,0,0,0,0,0,0,0,-0.0465,-0.0468,-0.0481,-0.0466,-0.0467,-0.0489,-0.0492,-0.0441,-0.0453,-0.051,-0.051,-0.0507,-0.0386,-0.0407,-0.0397,-0.0322,-0.0337,-0.0332,-0.0328,-0.0326,-0.0159,-0.0158,0,0,0,0,0,0,-0.0446,-0.0466,-0.0479,-0.0482,-0.0459,-0.0489,-0.0493,-0.0497,-0.0458,-0.0452,-0.0508,-0.0507,-0.0417,-0.0403,-0.0391,-0.0275,-0.0331,-0.0326,-0.0323,-0.016,-0.0159,-0.0158,0,0,0,0,0,0,-0.0446,-0.0447,-0.0478,-0.047,-0.0475,-0.049,-0.0494,-0.0498,-0.0509,-0.0457,-0.0448,-0.0512,-0.0415,-0.0398,-0.0373,-0.0272,-0.0323,-0.0318,-0.0162,-0.016,-0.0158,-0.0103,0,0,0,0,0,0,-0.0445,-0.0447,-0.0453,-0.0469,-0.0474,-0.0487,-0.0495,-0.0499,-0.0505,-0.0506,-0.0457,-0.0443,-0.0413,-0.0382,-0.0367,-0.0265,-0.0314,-0.0163,-0.0161,-0.0159,-0.0106,-0.01,-0.0094,0,0,0,0,0,-0.0445,-0.0468,-0.0453,-0.0455,-0.0479,-0.0486,-0.0492,-0.0503,-0.0506,-0.0511,-0.0505,-0.0444,-0.0355,-0.0379,-0.0361,-0.0255,-0.0164,-0.0162,-0.0159,-0.0109,-0.0101,-0.0094,0,0,0,0,0,0,-0.0472,-0.0471,-0.0456,-0.0478,-0.0468,-0.0487,-0.0498,-0.05,-0.0506,-0.0499,-0.0463,-0.0449,-0.0362,-0.0348,-0.0375,-0.0205,-0.0234,-0.0228,-0.0202,-0.0193,-0.0187,-0.0244,-0.0309,0,0,0,0,0,-0.0474,-0.049,-0.0475,-0.0492,-0.0481,-0.0485,-0.0492,-0.049,-0.0491,-0.0494,-0.0456,-0.041,-0.0341,-0.0308,-0.025,-0.019,-0.0187,-0.0103,-0.0097,-0.0092,-0.0129,-0.0046,-0.0035,-0.015,-0.015,-0.015,0,0,-0.0488,-0.0492,-0.0498,-0.0497,-0.0493,-0.0496,-0.0489,-0.0489,-0.049,-0.0468,-0.0453,-0.038,-0.0323,-0.0241,-0.0197,-0.0216,-0.0058,-0.0089,-0.0084,-0.0125,-0.0042,-0.003,-0.002,-0.0148,-0.0148,-0.0148,0,0,-0.053,-0.0518,-0.0539,-0.0529,-0.0511,-0.0507,-0.05,-0.0489,-0.0476,-0.0457,-0.0411,-0.0328,-0.0249,-0.0185,-0.0143,-0.0081,-0.002,-0.0011,-0.0025,0.0059,0.0068,0.0077,0.0093,0.0103,-0.0015,-0.0015,-0.0015,0,-0.0548,-0.0567,-0.0545,-0.0556,-0.0551,-0.0509,-0.0517,-0.0503,-0.0486,-0.0457,-0.0442,-0.0293,-0.0228,-0.0121,-0.0093,-0.0059,-0.0031,-0.005,0.0068,0.0076,0.0084,0.0098,0.0108,-0.0012,-0.0013,-0.0013,-0.0013,0,-0.0597,-0.0604,-0.0612,-0.0608,-0.06,-0.0596,-0.0554,-0.0527,-0.0488,-0.0452,-0.0332,-0.0257,-0.0176,-0.009,-0.0078,0.0048,0.0043,0.0078,0.005,0.0099,0.0111,0.012,-0.0008,-0.0009,-0.001,-0.0011,0,0,-0.0661,-0.065,-0.0651,-0.065,-0.062,-0.062,-0.0592,-0.0544,-0.0515,-0.0428,-0.038,-0.0225,-0.0157,-0.0112,-0.0025,0.005,0.0148,0.0082,0.0086,0.0095,0.0295,0.0325,0.0338,0.0227,0.0229,0.023,0.0279,0,-0.0702,-0.0735,-0.0713,-0.0729,-0.0734,-0.0674,-0.0653,-0.0596,-0.0527,-0.0464,-0.0329,-0.0237,-0.0169,-0.01,-0.0012,0.011,0.0176,0.0127,0.0243,0.0244,0.0267,0.0352,0.0324,0.0369,0.0288,0.0289,0.029,0,-0.0753,-0.0772,-0.0796,-0.0776,-0.0767,-0.0767,-0.0706,-0.0678,-0.0564,-0.05,-0.0382,-0.0283,-0.0156,-0.0104,0.0093,0.0066,0.0165,0.0253,0.0259,0.0263,0.0293,0.0307,0.0389,0.0306,0.0305,0.0304,0.0303,0,-0.0811,-0.0823,-0.0844,-0.0841,-0.0814,-0.0803,-0.0777,-0.0683,-0.0645,-0.0523,-0.047,-0.0307,-0.0218,-0.0069,0.0106,0.0111,0.0307,0.0338,0.0446,0.0447,0.0425,0.0421,0.0467,0.0467,0.0467,0.0467,0.0466,0,-0.0861,-0.0878,-0.0875,-0.0888,-0.0901,-0.0857,-0.0832,-0.0777,-0.0691,-0.0628,-0.0493,-0.0409,-0.0194,-0.0051,0.0088,0.0289,0.0296,0.0439,0.0479,0.0443,0.044,0.0381,0.037,0.0468,0.0468,0.0468,0.0467,0,-0.0909,-0.0906,-0.0937,-0.0931,-0.0931,-0.0938,-0.0894,-0.0865,-0.0775,-0.07,-0.0662,-0.0479,-0.0281,-0.0087,0.0157,0.0275,0.0455,0.0524,0.0432,0.0462,0.0526,0.0518,0.0632,0.0634,0.0635,0.0637,0.0638,0,-0.0935,-0.0958,-0.0981,-0.1002,-0.1002,-0.1002,-0.0991,-0.0919,-0.0879,-0.0729,-0.0694,-0.0496,-0.0328,0.0004,0.0254,0.0489,0.05,0.059,0.0607,0.0524,0.0552,0.0541,0.0531,0.0587,0.0587,0.0588,0.0588,0,-0.0991,-0.0995,-0.102,-0.107,-0.1086,-0.1083,-0.106,-0.1046,-0.0936,-0.0853,-0.07,-0.0562,-0.0227,0.0061,0.0364,0.0494,0.0548,0.0608,0.0584,0.0556,0.0489,0.0514,0.0504,0.0593,0.0592,0.0592,0.0592,0.0591,-0.1041,-0.1066,-0.1104,-0.1152,-0.116,-0.1156,-0.1156,-0.1093,-0.1027,-0.0877,-0.0722,-0.0484,-0.0206,0.0241,0.0459,0.0643,0.0635,0.0679,0.0674,0.067,0.0663,0.0605,0.0723,0.0724,0.0724,0.0724,0.0724,0,-0.1131,-0.1149,-0.1185,-0.1236,-0.1255,-0.1234,-0.1199,-0.1169,-0.1089,-0.0898,-0.0715,-0.0364,-0.0028,0.0237,0.0552,0.0743,0.072,0.0751,0.0691,0.0685,0.0681,0.0673,0.0736,0.0737,0.0738,0.0738,0,0,-0.1186,-0.1244,-0.1258,-0.133,-0.1343,-0.1358,-0.1339,-0.1241,-0.1112,-0.0904,-0.0697,-0.0402,-0.0052,0.0188,0.0428,0.0583,0.0567,0.0582,0.0548,0.0438,0.0431,0.0613,0.0592,0,0,0,0,0]}],[{"header":{"parameterUnit":"m.s-1","parameterCategory":2,"la1":30.2991,"la2":30.254,"lo1":-89.0895,"lo2":-89.0444,"dy":0.0017,"dx":0.0017,"nx":28,"ny":28,"refTime":"2023-10-17T03:00:00:Z","depth":"4","parameterNumber":2,"parameterNumberName":"U-component_of_CURRENTS"},"data":[0,0,0,0,0,0,0,0,0,0,0,0,0,0,0,0,0,0,0,0,0,0,0,0,0,0,0,0,0,0,0,0,0,0,0,0,0,0,0,0,0,0,0,0,0,0,0,0,0,0,0,0,0,0,0,0,0,0,-0.1571,-0.1571,0,-0.1627,-0.1627,-0.1627,-0.165,-0.165,-0.165,-0.165,-0.1725,-0.1726,-0.1728,0,0,0,0,0,0,0,0,0,0,0,0,0,-0.1456,-0.1457,-0.157,-0.1572,-0.1573,-0.1627,-0.1627,-0.1628,-0.165,-0.165,-0.165,-0.1651,-0.1724,-0.1726,-0.1728,0,0,0,0,0,0,0,0,0,0,0,0,0,-0.1504,-0.1458,-0.157,-0.1593,-0.1596,-0.1627,-0.1627,-0.1628,-0.165,-0.165,-0.165,-0.1651,-0.1723,-0.1726,-0.1729,-0.1737,0,0,-0.1737,-0.1738,0,0,0,0,0,0,0,0,-0.1501,-0.1508,-0.1589,-0.1592,-0.1595,-0.1635,-0.1614,-0.1667,-0.1649,-0.1625,-0.165,-0.1651,-0.1699,-0.1704,-0.1707,-0.1741,-0.1744,-0.1737,-0.1738,-0.174,-0.174,0,0,0,0,0,0,0,-0.1498,-0.1505,-0.1588,-0.159,-0.1594,-0.1592,-0.1599,-0.1624,-0.1656,-0.1627,-0.163,-0.1643,-0.17,-0.1704,-0.1709,-0.1745,-0.1737,-0.1739,-0.1741,-0.1742,-0.1886,-0.1888,0,0,0,0,0,0,-0.1501,-0.1502,-0.1587,-0.1591,-0.1553,-0.1594,-0.1602,-0.1619,-0.1656,-0.1663,-0.1642,-0.1644,-0.17,-0.1706,-0.1712,-0.1789,-0.1739,-0.1742,-0.1743,-0.1884,-0.1887,-0.1889,0,0,0,0,0,0,-0.1498,-0.1508,-0.1584,-0.1551,-0.1561,-0.1597,-0.1615,-0.162,-0.1657,-0.1668,-0.1675,-0.1679,-0.17,-0.1708,-0.1767,-0.179,-0.1743,-0.1745,-0.1881,-0.1885,-0.1888,-0.1902,0,0,0,0,0,0,-0.1495,-0.1507,-0.153,-0.1551,-0.1563,-0.1633,-0.1615,-0.1621,-0.1664,-0.1667,-0.1701,-0.1706,-0.1701,-0.1763,-0.1769,-0.1792,-0.1748,-0.1878,-0.1883,-0.1887,-0.1899,-0.1906,-0.1911,0,0,0,0,0,-0.149,-0.1516,-0.153,-0.1541,-0.159,-0.1635,-0.1642,-0.1664,-0.1666,-0.1695,-0.1717,-0.1707,-0.1795,-0.1767,-0.1774,-0.1798,-0.1876,-0.1881,-0.1886,-0.1896,-0.1904,-0.1911,0,0,0,0,0,0,-0.148,-0.1522,-0.1538,-0.1577,-0.1619,-0.1641,-0.1667,-0.1685,-0.1723,-0.1732,-0.1734,-0.1742,-0.1802,-0.1809,-0.1779,-0.1857,-0.1835,-0.1841,-0.184,-0.1848,-0.1854,-0.1867,-0.175,0,0,0,0,0,-0.1489,-0.152,-0.1563,-0.1599,-0.1619,-0.165,-0.1675,-0.1698,-0.1729,-0.1747,-0.1773,-0.18,-0.1823,-0.1844,-0.1872,-0.1915,-0.1907,-0.1939,-0.1945,-0.195,-0.197,-0.1963,-0.1969,-0.1906,-0.1906,-0.1906,0,0,-0.1497,-0.1524,-0.1544,-0.1599,-0.1626,-0.166,-0.1666,-0.1718,-0.1751,-0.175,-0.1809,-0.183,-0.1843,-0.1887,-0.1915,-0.1899,-0.1966,-0.1957,-0.196,-0.1977,-0.1969,-0.1975,-0.198,-0.1909,-0.1909,-0.1908,0,0,-0.1515,-0.1551,-0.158,-0.1615,-0.1673,-0.1693,-0.1718,-0.1769,-0.1799,-0.1859,-0.186,-0.1905,-0.1948,-0.1959,-0.1965,-0.2031,-0.2002,-0.2042,-0.2078,-0.2071,-0.2075,-0.2079,-0.2068,-0.2071,-0.204,-0.204,-0.204,0,-0.1523,-0.1562,-0.1598,-0.1631,-0.1661,-0.171,-0.1746,-0.1783,-0.1852,-0.1873,-0.1889,-0.1949,-0.1978,-0.2001,-0.2037,-0.2043,-0.2032,-0.2036,-0.2075,-0.2078,-0.2082,-0.207,-0.2073,-0.2042,-0.2042,-0.2041,-0.2041,0,-0.1554,-0.1592,-0.1613,-0.1665,-0.1705,-0.175,-0.1802,-0.1853,-0.1894,-0.192,-0.198,-0.2015,-0.2044,-0.2064,-0.2078,-0.2118,-0.2099,-0.2079,-0.2043,-0.2088,-0.2075,-0.2077,-0.2044,-0.2043,-0.2043,-0.2042,0,0,-0.1542,-0.1619,-0.1628,-0.1651,-0.1728,-0.1757,-0.182,-0.1877,-0.1903,-0.1975,-0.2005,-0.2073,-0.209,-0.2104,-0.2118,-0.2139,-0.2168,-0.2135,-0.2134,-0.2105,-0.2148,-0.199,-0.1977,-0.2142,-0.2143,-0.2143,-0.2125,0,-0.1555,-0.161,-0.1653,-0.1706,-0.1731,-0.1792,-0.1834,-0.1894,-0.1944,-0.199,-0.2032,-0.2072,-0.2099,-0.212,-0.2144,-0.2174,-0.2178,-0.2175,-0.2129,-0.2129,-0.1964,-0.1975,-0.2146,-0.2126,-0.2127,-0.2127,-0.2127,0,-0.1557,-0.1594,-0.165,-0.1706,-0.1724,-0.177,-0.1833,-0.188,-0.1948,-0.1985,-0.2029,-0.2063,-0.213,-0.2136,-0.2181,-0.2176,-0.2176,-0.2185,-0.2183,-0.2035,-0.1974,-0.2078,-0.2131,-0.2131,-0.2131,-0.213,-0.213,0,-0.15,-0.158,-0.1622,-0.1648,-0.1727,-0.1767,-0.1813,-0.1881,-0.1917,-0.1989,-0.2025,-0.2071,-0.2121,-0.2131,-0.2177,-0.2182,-0.2203,-0.2192,-0.2036,-0.2024,-0.2166,-0.2162,-0.2197,-0.2197,-0.2197,-0.2197,-0.2197,0,-0.1467,-0.1499,-0.1605,-0.1624,-0.166,-0.1736,-0.1779,-0.1827,-0.1904,-0.1939,-0.2021,-0.2049,-0.213,-0.2154,-0.2166,-0.2102,-0.2179,-0.2045,-0.2006,-0.2174,-0.2171,-0.2166,-0.2163,-0.2197,-0.2197,-0.2197,-0.2197,0,-0.1385,-0.146,-0.1504,-0.1605,-0.1632,-0.1659,-0.1753,-0.1784,-0.187,-0.1926,-0.1957,-0.2054,-0.2075,-0.211,-0.2134,-0.2075,-0.2036,-0.1984,-0.2165,-0.2136,-0.1868,-0.1867,-0.1808,-0.1802,-0.1797,-0.1793,-0.1789,0,-0.1343,-0.1364,-0.1471,-0.1494,-0.1546,-0.1604,-0.1641,-0.1744,-0.1787,-0.1909,-0.193,-0.1992,-0.2035,-0.193,-0.1979,-0.1927,-0.1907,-0.1871,-0.188,-0.1859,-0.1828,-0.1834,-0.1839,-0.1782,-0.178,-0.1779,-0.1778,0,-0.1252,-0.1312,-0.1349,-0.1395,-0.145,-0.1498,-0.1574,-0.1594,-0.1719,-0.1823,-0.1841,-0.1836,-0.1843,-0.1833,-0.1791,-0.1764,-0.189,-0.182,-0.183,-0.1838,-0.1826,-0.1802,-0.1812,-0.1761,-0.1763,-0.1765,-0.1766,0,-0.1184,-0.1184,-0.124,-0.1268,-0.1334,-0.1374,-0.1433,-0.1491,-0.1538,-0.1698,-0.1695,-0.1755,-0.1835,-0.1746,-0.1716,-0.166,-0.1641,-0.1596,-0.1618,-0.1637,-0.1586,-0.1546,-0.1356,0,0,0,0,0,-0.1101,-0.1083,-0.1102,-0.1127,-0.12,-0.1236,-0.1372,-0.145,-0.1589,-0.1558,-0.162,-0.1615,-0.157,-0.1595,-0.1498,-0.1624,-0.1641,-0.1504,-0.1601,-0.1665,-0.1685,-0.1638,0,0,0,0,0,0,-0.1037,-0.1047,-0.1049,-0.1009,-0.1006,-0.1069,-0.1161,-0.1272,-0.1267,-0.1411,-0.1391,-0.1486,-0.1459,-0.1574,-0.1445,-0.1451,-0.1475,-0.1538,-0.1534,-0.1654,-0.1672,-0.1688,-0.1646,0,0,0,0,0]},{"header":{"parameterUnit":"m.s-1","parameterCategory":2,"la1":30.2991,"la2":30.254,"lo1":-89.0895,"lo2":-89.0444,"dy":0.0017,"dx":0.0017,"nx":28,"ny":28,"refTime":"2023-10-17T03:00:00:Z","depth":"4","parameterNumber":3,"parameterNumberName":"V-component_of_CURRENTS"},"data":[0,0,0,0,0,0,0,0,0,0,0,0,0,0,0,0,0,0,0,0,0,0,0,0,0,0,0,0,0,0,0,0,0,0,0,0,0,0,0,0,0,0,0,0,0,0,0,0,0,0,0,0,0,0,0,0,0,0,-0.0489,-0.0489,0,-0.0497,-0.0497,-0.0497,-0.0485,-0.0485,-0.0484,-0.0484,-0.0453,-0.0453,-0.0452,0,0,0,0,0,0,0,0,0,0,0,0,0,-0.0471,-0.0472,-0.0489,-0.0489,-0.0489,-0.0497,-0.0497,-0.0497,-0.0485,-0.0485,-0.0484,-0.0484,-0.0453,-0.0453,-0.0452,0,0,0,0,0,0,0,0,0,0,0,0,0,-0.048,-0.0472,-0.0489,-0.0484,-0.0483,-0.0497,-0.0497,-0.0497,-0.0485,-0.0485,-0.0484,-0.0483,-0.0453,-0.0453,-0.0452,-0.0463,0,0,-0.045,-0.045,0,0,0,0,0,0,0,0,-0.0479,-0.048,-0.0485,-0.0484,-0.0484,-0.0489,-0.048,-0.0484,-0.0486,-0.0485,-0.0484,-0.0483,-0.0462,-0.046,-0.0465,-0.0461,-0.046,-0.045,-0.045,-0.045,-0.0449,0,0,0,0,0,0,0,-0.0479,-0.048,-0.0493,-0.0485,-0.0484,-0.0484,-0.0484,-0.0481,-0.0477,-0.0485,-0.0484,-0.0485,-0.0461,-0.0465,-0.0464,-0.0459,-0.045,-0.045,-0.0449,-0.0449,-0.0467,-0.0468,0,0,0,0,0,0,-0.0477,-0.048,-0.0493,-0.0493,-0.0479,-0.0484,-0.0485,-0.0489,-0.0478,-0.0476,-0.0485,-0.0484,-0.0467,-0.0464,-0.0462,-0.049,-0.045,-0.0449,-0.0449,-0.0467,-0.0468,-0.0469,0,0,0,0,0,0,-0.0477,-0.0478,-0.0492,-0.0486,-0.0487,-0.0485,-0.049,-0.0489,-0.0494,-0.0478,-0.0475,-0.0491,-0.0466,-0.0463,-0.0472,-0.0488,-0.0449,-0.0448,-0.0466,-0.0467,-0.0468,-0.0535,0,0,0,0,0,0,-0.0476,-0.0478,-0.0485,-0.0486,-0.0488,-0.0506,-0.049,-0.049,-0.0495,-0.0494,-0.0482,-0.0478,-0.0465,-0.0473,-0.0472,-0.0487,-0.0448,-0.0465,-0.0466,-0.0468,-0.0532,-0.0539,-0.0544,0,0,0,0,0,-0.0476,-0.049,-0.0486,-0.0487,-0.0496,-0.0506,-0.0508,-0.0504,-0.0496,-0.0505,-0.0502,-0.0479,-0.0481,-0.0474,-0.0472,-0.0487,-0.0464,-0.0466,-0.0468,-0.0529,-0.0537,-0.0544,0,0,0,0,0,0,-0.0485,-0.049,-0.0485,-0.05,-0.0504,-0.0504,-0.0513,-0.0509,-0.0515,-0.0511,-0.0495,-0.0492,-0.0505,-0.0488,-0.048,-0.0496,-0.0467,-0.0468,-0.0514,-0.0522,-0.0528,-0.0498,-0.0447,0,0,0,0,0,-0.049,-0.0505,-0.0504,-0.0517,-0.0518,-0.0516,-0.0521,-0.0517,-0.0519,-0.0521,-0.052,-0.0513,-0.0512,-0.051,-0.0507,-0.0519,-0.0448,-0.0525,-0.0531,-0.0536,-0.0511,-0.0436,-0.0432,-0.0475,-0.0475,-0.0475,0,0,-0.0497,-0.0503,-0.051,-0.052,-0.0521,-0.0536,-0.0518,-0.0526,-0.0538,-0.0516,-0.054,-0.0537,-0.052,-0.0536,-0.0539,-0.0523,-0.0486,-0.0539,-0.0544,-0.0514,-0.0437,-0.0432,-0.0428,-0.0476,-0.0476,-0.0476,0,0,-0.0522,-0.0523,-0.0542,-0.0548,-0.0553,-0.0553,-0.0557,-0.0564,-0.0564,-0.0585,-0.0573,-0.0572,-0.0585,-0.057,-0.0564,-0.0598,-0.0523,-0.0608,-0.0615,-0.0544,-0.0539,-0.0534,-0.0429,-0.0414,-0.061,-0.061,-0.061,0,-0.0532,-0.0554,-0.055,-0.0568,-0.0576,-0.0564,-0.0583,-0.0585,-0.0598,-0.0596,-0.0599,-0.0599,-0.0592,-0.0587,-0.0604,-0.0609,-0.0545,-0.0592,-0.055,-0.0543,-0.0536,-0.043,-0.0412,-0.0614,-0.0613,-0.0613,-0.0613,0,-0.0566,-0.0586,-0.0597,-0.0618,-0.0627,-0.0641,-0.0638,-0.0648,-0.065,-0.0646,-0.0647,-0.0639,-0.0629,-0.064,-0.0634,-0.0599,-0.0559,-0.0567,-0.0527,-0.0535,-0.0424,-0.0404,-0.0619,-0.0617,-0.0616,-0.0615,0,0,-0.0585,-0.0617,-0.0621,-0.064,-0.0652,-0.0665,-0.0678,-0.0682,-0.0684,-0.0687,-0.0677,-0.0683,-0.0663,-0.0652,-0.0644,-0.059,-0.0498,-0.0564,-0.0558,-0.0451,-0.0308,-0.0335,-0.0315,-0.0503,-0.0501,-0.0499,-0.0245,0,-0.0615,-0.066,-0.0666,-0.0709,-0.0731,-0.0723,-0.0738,-0.0736,-0.073,-0.0719,-0.068,-0.0673,-0.0672,-0.0668,-0.0615,-0.053,-0.0451,-0.0563,-0.0321,-0.0312,-0.033,-0.0296,-0.049,-0.023,-0.0225,-0.0222,-0.0219,0,-0.0646,-0.0674,-0.0722,-0.0754,-0.076,-0.0785,-0.0794,-0.0805,-0.0772,-0.0759,-0.0726,-0.0692,-0.0616,-0.0617,-0.0434,-0.0508,-0.0402,-0.0328,-0.0317,-0.0298,-0.0304,-0.0221,-0.0182,-0.0185,-0.0188,-0.0191,-0.0193,0,-0.0665,-0.0712,-0.0754,-0.0767,-0.08,-0.0818,-0.083,-0.082,-0.0817,-0.0774,-0.0747,-0.0665,-0.06,-0.0476,-0.0338,-0.0371,-0.0116,-0.0142,-0.005,-0.0049,-0.0069,-0.0077,0.0018,0.0017,0.0017,0.0016,0.0015,0,-0.069,-0.0727,-0.0771,-0.0795,-0.084,-0.0848,-0.0875,-0.0873,-0.0845,-0.0819,-0.0766,-0.0706,-0.0561,-0.0416,-0.0299,-0.0107,-0.0074,-0.0017,0.0015,-0.0104,-0.0119,-0.0053,-0.0065,0.0025,0.0023,0.0021,0.002,0,-0.0705,-0.0735,-0.0789,-0.0835,-0.0855,-0.0885,-0.0908,-0.0913,-0.0884,-0.0838,-0.0815,-0.0691,-0.0503,-0.035,-0.0117,-0.0045,0.0124,0.0185,0.0086,0.0104,0.0148,0.013,0.0339,0.034,0.0341,0.0342,0.0343,0,-0.0718,-0.075,-0.0819,-0.0854,-0.0881,-0.0923,-0.0944,-0.0938,-0.0924,-0.0824,-0.0784,-0.0607,-0.051,-0.0171,-0.0042,0.0208,0.0211,0.0317,0.02,0.0172,0.0183,0.0163,0.0144,0.0344,0.0345,0.0345,0.0345,0,-0.0742,-0.0772,-0.0812,-0.088,-0.0923,-0.0958,-0.0975,-0.0957,-0.0917,-0.0884,-0.0719,-0.0564,-0.0347,-0.0145,0.0046,0.0204,0.0247,0.0327,0.0325,0.0217,0.018,0.0186,0.0166,0.0348,0.0348,0.0348,0.0347,0,-0.0765,-0.0797,-0.0854,-0.0905,-0.0961,-0.0978,-0.0979,-0.0928,-0.09,-0.0776,-0.0712,-0.0505,-0.0375,-0.0141,0.0027,0.018,0.0201,0.0228,0.0232,0.023,0.0078,0.0008,0.0182,0,0,0,0,0,-0.079,-0.0827,-0.0875,-0.0936,-0.0978,-0.1009,-0.0998,-0.0979,-0.092,-0.0799,-0.0752,-0.0554,-0.0286,-0.0171,-0.0016,0.0011,0.0199,0.0193,0.0224,0.0367,0.0363,0.0194,0,0,0,0,0,0,-0.0818,-0.087,-0.0881,-0.0943,-0.0985,-0.103,-0.1022,-0.0974,-0.089,-0.0804,-0.0651,-0.0553,-0.0292,-0.0382,-0.0028,0.0017,0.0052,0.0323,0.0325,0.037,0.0366,0.0363,0.0188,0,0,0,0,0]}]]